Regional Weather Roundup
Issued by NWS

Home | Current Version | Previous Version | Text Only | Print | Product List | Glossary On
Versions: 1 2 3 4 5 6 7 8 9 10 11 12 13 14 15 16 17 18 19 20 21 22 23 24 25 26 27 28 29 30 31 32 33 34 35 36 37 38 39 40 41 42 43 44 45 46 47 48 49 50
000
ASUS45 KSLC 261610
RWRUT

UTAH REGIONAL WEATHER ROUNDUP
NATIONAL WEATHER SERVICE SALT LAKE CITY UT
900 AM MST WED NOV 26 2014

UTZ001>011-023>025-261700-

NORTHERN UTAH

CITY           SKY/WX    TMP DP  RH WIND       PRES   REMARKS
HILL AFB       MOSUNNY   44  33  67 SW5       30.39R
LOGAN          SUNNY     42  34  73 NE6       30.37R
OGDEN          SUNNY     45  33  63 S8        30.38R
PROVO AIRPORT  MOSUNNY   34  28  80 CALM      30.43R
SALT LAKE CITY MOSUNNY   43  28  55 SE9       30.39R
VERNAL         MOSUNNY   38  28  67 CALM      30.33R
WENDOVER       SUNNY     43  28  56 NW3       30.40R
HEBER CITY     SUNNY     32  30  93 CALM      30.40R
WEST JORDAN    SUNNY     45  36  70 SE5       30.40R

$$

UTZ012>022-026-027-261700-

SOUTHERN/CENTRAL UTAH

CITY           SKY/WX    TMP DP  RH WIND       PRES   REMARKS
BLANDING       MOSUNNY   43  26  50 CALM      30.47R
BRYCE CANYON   SUNNY     22  18  85 CALM      30.50R
CEDAR CITY     MOSUNNY   35  24  64 CALM      30.45R
DELTA          MOSUNNY   34  26  71 CALM      30.44R
MILFORD        SUNNY     31  18  58 S8        30.45R WCI  23
MOAB/CYNLANDS  SUNNY     31  10  41 CALM      30.39R
PRICE          MOSUNNY   36  25  64 CALM      30.38R
ST GEORGE      SUNNY     36  10  35 CALM      30.49R

$$

REGIONAL REPORTS     COLORADO/ARIZONA

CITY           SKY/WX    TMP DP  RH WIND       PRES   REMARKS
CRAIG, CO      PTSUNNY   35  27  72 CALM      30.32R
GRAND JUNCTION SUNNY     31  20  63 S5        30.40R WCI  26
RIFLE          SUNNY     28  22  78 CALM      30.40R
MONTROSE       SUNNY     35  21  56 SE3       30.41R
CORTEZ         SUNNY     39  25  57 E6        30.39S WCI  35
PAGE, AZ       SUNNY     44  10  25 CALM      30.42R
GRAND CANYON   SUNNY     34  15  46 CALM      30.47R
KINGMAN        SUNNY     47  10  22 CALM      30.39R
FLAGSTAFF      SUNNY     41  21  44 CALM      30.46R

$$

REGIONAL REPORTS    NEVADA/IDAHO/WYOMING

CITY           SKY/WX    TMP DP  RH WIND       PRES   REMARKS
LAS VEGAS, NV  SUNNY     50  15  24 S6        30.38R
ELY            MOSUNNY   26  32 100 S12       30.49R WCI  16
ELKO           SUNNY     31  26  82 CALM      30.45R
POCATELLO, ID  MOSUNNY   45  37  73 SW22      30.31S
BURLEY         SUNNY     45  32  60 W14       30.33R
EVANSTON, WY   MOSUNNY   37  29  72 W18       30.36R WCI  27
ROCK SPRINGS   SUNNY     37  29  72 W35G44    30.23S WCI  24

$$



USA.gov is the U.S. government's official web portal to all federal, state and local government web resources and services.